User: anonymous
Location: Blue Mountain Vista Observatory
(40.6992°N, 75.9422°W)
Time: 01:32:36
(UTC-04:00)
Language:

CZ-4C R/B - Orbit

View from above orbital plane
View from above orbital plane
View from above satellite
View from above satellite

Ground track
Ground track

The orbit data is extracted from the following two-line orbital elements,

1 36416U 10009D   14106.18239166 -.00000078  00000-0  16320-4 0  6818
2 36416 063.4482 126.0524 0274029 000.9963 066.8229 13.69408889205792
Epoch (UTC): 16 April 2014 04:22:38
Eccentricity: 0.0274029
inclination: 63.4482°
perigee height: 799 km
apogee height: 1204 km
right ascension of ascending node: 126.0524°
argument of perigee: 0.9963°
revolutions per day: 13.69408889
mean anomaly at epoch: 66.8229°
orbit number at epoch: 20579

The dashed part of the orbit path shows where the satellite is in the earth's shadow,  

DLR